Location: Niedergestelen
(46.3129°N, 7.7822°E)
Time: 05:57:51
(UTC+00:00)

NOSS 3-3 (A) - Pass Details

Date: 01 December 2020
Orbit: 819 x 1393 km, 63.4° (Epoch: 14 January)

Event Time Altitude Azimuth Distance (km) Brightness Sun altitude
Rises 17:31:48 0° 320° (NW) 3,922 7.5 -18.0°
Reaches altitude 10° 17:34:23 10° 324° (NW) 3,041 6.9 -18.4°
Maximum altitude 17:41:44 64° 46° (NE) 1,382 4.5 -19.6°
Enters shadow 17:48:02 18° 123° (ESE) 2,767 5.9 -20.7°
